Time,TemperatureF,DewpointF,PressureIn,WindDirection,WindDirectionDegrees,WindSpeedMPH,WindSpeedGustMPH,Humidity,HourlyPrecipIn,Conditions,Clouds,dailyrainin,SoftwareType,DateUTC
2013-01-10 00:00:00,42.9,28.3,29.99,WSW,252,10.0,13.0,56,0.00,,---,0.00,VWS V14.01,2013-01-10 05:00:00,
2013-01-10 00:01:00,42.9,28.7,29.99,NNE,17,7.0,17.0,57,0.00,,---,0.00,VWS V14.01,2013-01-10 05:01:00,
2013-01-10 00:03:00,42.9,27.9,29.98,West,267,4.0,17.0,55,0.00,,---,0.00,VWS V14.01,2013-01-10 05:03:00,
2013-01-10 00:08:00,42.9,28.3,29.98,WSW,248,12.0,15.0,56,0.00,,---,0.00,VWS V14.01,2013-01-10 05:08:00,
2013-01-10 00:13:00,42.7,28.1,29.99,WSW,240,9.0,15.0,56,0.00,,---,0.00,VWS V14.01,2013-01-10 05:13:00,
2013-01-10 00:18:00,42.6,28.0,29.99,WSW,238,5.0,16.0,56,0.00,,---,0.00,VWS V14.01,2013-01-10 05:18:00,
2013-01-10 00:23:00,42.5,27.9,29.99,West,265,5.0,15.0,56,0.00,,---,0.00,VWS V14.01,2013-01-10 05:23:00,
2013-01-10 00:28:00,42.4,28.7,29.98,WSW,241,2.0,15.0,58,0.00,,---,0.00,VWS V14.01,2013-01-10 05:28:00,
2013-01-10 00:33:00,42.2,28.1,29.99,West,261,6.0,14.0,57,0.00,,---,0.00,VWS V14.01,2013-01-10 05:33:00,
2013-01-10 00:39:00,42.0,27.9,29.98,SSW,205,1.0,14.0,57,0.00,,---,0.00,VWS V14.01,2013-01-10 05:39:00,
2013-01-10 00:44:00,42.0,27.9,29.98,WSW,245,10.0,16.0,57,0.00,,---,0.00,VWS V14.01,2013-01-10 05:44:00,
2013-01-10 00:49:00,42.2,28.1,29.99,West,265,6.0,19.0,57,0.00,,---,0.00,VWS V14.01,2013-01-10 05:49:00,
2013-01-10 00:54:00,42.1,28.4,29.99,West,263,10.0,19.0,58,0.00,,---,0.00,VWS V14.01,2013-01-10 05:54:00,
2013-01-10 00:59:00,42.1,28.4,30.00,North,350,4.0,11.0,58,0.00,,---,0.00,VWS V14.01,2013-01-10 05:59:00,
2013-01-10 01:04:00,42.2,28.5,30.00,WSW,248,19.0,19.0,58,0.00,,---,0.00,VWS V14.01,2013-01-10 06:04:00,
2013-01-10 01:09:00,42.2,28.5,30.00,West,272,3.0,5.0,58,0.00,,---,0.00,VWS V14.01,2013-01-10 06:09:00,
2013-01-10 01:14:00,42.3,28.6,30.00,WSW,252,3.0,5.0,58,0.00,,---,0.00,VWS V14.01,2013-01-10 06:14:00,
2013-01-10 01:19:00,42.3,28.2,30.00,WSW,258,12.0,12.0,57,0.00,,---,0.00,VWS V14.01,2013-01-10 06:19:00,
2013-01-10 01:24:00,42.2,28.5,30.01,West,275,7.0,15.0,58,0.00,,---,0.00,VWS V14.01,2013-01-10 06:24:00,
2013-01-10 01:29:00,42.3,28.6,30.01,WSW,244,6.0,7.0,58,0.00,,---,0.00,VWS V14.01,2013-01-10 06:29:00,
2013-01-10 01:35:00,42.4,28.7,30.01,West,281,7.0,16.0,58,0.00,,---,0.00,VWS V14.01,2013-01-10 06:35:00,
2013-01-10 01:40:00,42.4,28.7,30.01,NW,319,4.0,8.0,58,0.00,,---,0.00,VWS V14.01,2013-01-10 06:40:00,
2013-01-10 01:45:00,42.5,28.8,30.01,West,273,6.0,16.0,58,0.00,,---,0.00,VWS V14.01,2013-01-10 06:45:00,
2013-01-10 01:50:00,42.7,29.0,30.01,NW,306,6.0,19.0,58,0.00,,---,0.00,VWS V14.01,2013-01-10 06:50:00,
2013-01-10 01:55:00,42.8,29.5,30.01,SW,234,12.0,16.0,59,0.00,,---,0.00,VWS V14.01,2013-01-10 06:55:00,
2013-01-10 02:00:00,42.8,29.1,30.01,WSW,244,6.0,11.0,58,0.00,,---,0.00,VWS V14.01,2013-01-10 07:00:00,
2013-01-10 02:05:00,42.6,29.7,30.02,SW,223,25.0,27.0,60,0.00,,---,0.00,VWS V14.01,2013-01-10 07:05:00,
2013-01-10 02:10:00,42.5,29.6,30.03,WSW,247,2.0,18.0,60,0.00,,---,0.00,VWS V14.01,2013-01-10 07:10:00,
2013-01-10 02:16:00,42.4,29.9,30.03,West,261,17.0,17.0,61,0.00,,---,0.00,VWS V14.01,2013-01-10 07:16:00,
2013-01-10 02:21:00,42.4,29.9,30.03,NNW,330,8.0,20.0,61,0.00,,---,0.00,VWS V14.01,2013-01-10 07:21:00,
2013-01-10 02:26:00,42.2,29.7,30.03,NW,305,4.0,13.0,61,0.00,,---,0.00,VWS V14.01,2013-01-10 07:26:00,
2013-01-10 02:31:00,42.2,29.3,30.04,West,261,8.0,24.0,60,0.00,,---,0.00,VWS V14.01,2013-01-10 07:31:00,
2013-01-10 02:36:00,42.0,29.1,30.04,SSW,202,10.0,18.0,60,0.00,,---,0.00,VWS V14.01,2013-01-10 07:36:00,
2013-01-10 02:41:00,41.8,29.0,30.05,WSW,257,10.0,27.0,60,0.00,,---,0.00,VWS V14.01,2013-01-10 07:41:00,
2013-01-10 02:46:00,41.7,28.4,30.05,East,100,4.0,23.0,59,0.00,,---,0.00,VWS V14.01,2013-01-10 07:46:00,
2013-01-10 02:51:00,41.6,28.4,30.05,NW,311,4.0,19.0,59,0.00,,---,0.00,VWS V14.01,2013-01-10 07:51:00,
2013-01-10 02:56:00,41.5,28.3,30.06,West,267,5.0,21.0,59,0.00,,---,0.00,VWS V14.01,2013-01-10 07:56:00,
2013-01-10 03:02:00,41.5,27.8,30.06,West,273,10.0,15.0,58,0.00,,---,0.00,VWS V14.01,2013-01-10 08:02:00,
2013-01-10 03:07:00,41.4,27.8,30.06,WSW,252,4.0,13.0,58,0.00,,---,0.00,VWS V14.01,2013-01-10 08:07:00,
2013-01-10 03:12:00,41.4,27.8,30.06,WSW,241,6.0,11.0,58,0.00,,---,0.00,VWS V14.01,2013-01-10 08:12:00,
2013-01-10 03:17:00,41.2,27.6,30.07,NW,323,5.0,15.0,58,0.00,,---,0.00,VWS V14.01,2013-01-10 08:17:00,
2013-01-10 03:22:00,41.3,27.6,30.07,WNW,283,8.0,16.0,58,0.00,,---,0.00,VWS V14.01,2013-01-10 08:22:00,
2013-01-10 03:27:00,41.2,27.6,30.07,NW,315,3.0,12.0,58,0.00,,---,0.00,VWS V14.01,2013-01-10 08:27:00,
2013-01-10 03:32:00,41.0,27.8,30.08,West,268,7.0,12.0,59,0.00,,---,0.00,VWS V14.01,2013-01-10 08:32:00,
2013-01-10 03:37:00,40.7,27.5,30.08,West,268,10.0,15.0,59,0.00,,---,0.00,VWS V14.01,2013-01-10 08:37:00,
2013-01-10 03:42:00,40.6,27.8,30.08,West,275,4.0,23.0,60,0.00,,---,0.00,VWS V14.01,2013-01-10 08:42:00,
2013-01-10 03:48:00,40.7,27.9,30.08,WSW,257,17.0,19.0,60,0.00,,---,0.00,VWS V14.01,2013-01-10 08:48:00,
2013-01-10 03:53:00,40.8,28.0,30.08,WSW,246,10.0,18.0,60,0.00,,---,0.00,VWS V14.01,2013-01-10 08:53:00,
2013-01-10 03:58:00,40.8,28.0,30.10,NW,315,4.0,15.0,60,0.00,,---,0.00,VWS V14.01,2013-01-10 08:58:00,
2013-01-10 04:03:00,40.8,27.6,30.11,West,273,5.0,24.0,59,0.00,,---,0.00,VWS V14.01,2013-01-10 09:03:00,
2013-01-10 04:08:00,41.0,27.8,30.11,WSW,247,4.0,23.0,59,0.00,,---,0.00,VWS V14.01,2013-01-10 09:08:00,
2013-01-10 04:13:00,41.1,27.9,30.12,NNW,329,5.0,14.0,59,0.00,,---,0.00,VWS V14.01,2013-01-10 09:13:00,
2013-01-10 04:18:00,41.0,27.8,30.12,NW,315,4.0,22.0,59,0.00,,---,0.00,VWS V14.01,2013-01-10 09:18:00,
2013-01-10 04:23:00,40.8,27.6,30.13,West,262,6.0,13.0,59,0.00,,---,0.00,VWS V14.01,2013-01-10 09:23:00,
2013-01-10 04:28:00,40.7,27.5,30.13,West,276,6.0,12.0,59,0.00,,---,0.00,VWS V14.01,2013-01-10 09:28:00,
2013-01-10 04:33:00,40.7,27.5,30.13,NNW,337,6.0,18.0,59,0.00,,---,0.00,VWS V14.01,2013-01-10 09:33:00,
2013-01-10 04:38:00,40.7,27.5,30.14,WNW,289,3.0,13.0,59,0.00,,---,0.00,VWS V14.01,2013-01-10 09:38:00,
2013-01-10 04:43:00,40.5,27.3,30.14,West,262,2.0,12.0,59,0.00,,---,0.00,VWS V14.01,2013-01-10 09:43:00,
2013-01-10 04:48:00,40.3,27.1,30.14,West,271,7.0,13.0,59,0.00,,---,0.00,VWS V14.01,2013-01-10 09:48:00,
2013-01-10 04:53:00,40.2,27.4,30.14,NNW,346,13.0,15.0,60,0.00,,---,0.00,VWS V14.01,2013-01-10 09:53:00,
2013-01-10 04:58:00,40.2,26.6,30.15,West,277,5.0,13.0,58,0.00,,---,0.00,VWS V14.01,2013-01-10 09:58:00,
2013-01-10 05:03:00,40.4,26.8,30.14,WNW,290,2.0,14.0,58,0.00,,---,0.00,VWS V14.01,2013-01-10 10:03:00,
2013-01-10 05:08:00,40.3,26.7,30.14,NW,325,16.0,19.0,58,0.00,,---,0.00,VWS V14.01,2013-01-10 10:08:00,
2013-01-10 05:13:00,40.3,26.7,30.14,West,272,5.0,15.0,58,0.00,,---,0.00,VWS V14.01,2013-01-10 10:13:00,
2013-01-10 05:19:00,40.2,27.0,30.14,WNW,298,6.0,17.0,59,0.00,,---,0.00,VWS V14.01,2013-01-10 10:19:00,
2013-01-10 05:24:00,40.2,27.0,30.15,West,274,6.0,19.0,59,0.00,,---,0.00,VWS V14.01,2013-01-10 10:24:00,
2013-01-10 05:29:00,40.1,26.9,30.16,NW,319,13.0,17.0,59,0.00,,---,0.00,VWS V14.01,2013-01-10 10:29:00,
2013-01-10 05:34:00,40.0,26.8,30.16,WNW,296,9.0,16.0,59,0.00,,---,0.00,VWS V14.01,2013-01-10 10:34:00,
2013-01-10 05:39:00,39.9,26.8,30.16,North,360,9.0,9.0,59,0.00,,---,0.00,VWS V14.01,2013-01-10 10:39:00,
2013-01-10 05:44:00,39.8,26.7,30.16,WNW,300,8.0,11.0,59,0.00,,---,0.00,VWS V14.01,2013-01-10 10:44:00,
2013-01-10 05:49:00,39.6,26.9,30.17,West,275,1.0,3.0,60,0.00,,---,0.00,VWS V14.01,2013-01-10 10:49:00,
2013-01-10 05:54:00,39.6,26.5,30.18,NNW,331,12.0,12.0,59,0.00,,---,0.00,VWS V14.01,2013-01-10 10:54:00,
2013-01-10 05:59:00,39.6,26.5,30.18,WNW,300,12.0,12.0,59,0.00,,---,0.00,VWS V14.01,2013-01-10 10:59:00,
2013-01-10 06:04:00,39.6,26.1,30.18,West,268,7.0,9.0,58,0.00,,---,0.00,VWS V14.01,2013-01-10 11:04:00,
2013-01-10 06:09:00,39.6,26.1,30.18,West,277,5.0,7.0,58,0.00,,---,0.00,VWS V14.01,2013-01-10 11:09:00,
2013-01-10 06:14:00,39.6,26.5,30.19,NW,304,6.0,11.0,59,0.00,,---,0.00,VWS V14.01,2013-01-10 11:14:00,
2013-01-10 06:19:00,39.6,26.1,30.19,WNW,292,4.0,16.0,58,0.00,,---,0.00,VWS V14.01,2013-01-10 11:19:00,
2013-01-10 06:24:00,39.5,26.0,30.19,West,281,9.0,12.0,58,0.00,,---,0.00,VWS V14.01,2013-01-10 11:24:00,
2013-01-10 06:30:00,39.4,25.9,30.20,WNW,283,14.0,16.0,58,0.00,,---,0.00,VWS V14.01,2013-01-10 11:30:00,
2013-01-10 06:35:00,39.3,25.8,30.21,WNW,286,15.0,15.0,58,0.00,,---,0.00,VWS V14.01,2013-01-10 11:35:00,
2013-01-10 06:40:00,39.2,25.7,30.21,West,270,5.0,14.0,58,0.00,,---,0.00,VWS V14.01,2013-01-10 11:40:00,
2013-01-10 06:45:00,39.1,25.6,30.21,West,267,7.0,17.0,58,0.00,,---,0.00,VWS V14.01,2013-01-10 11:45:00,
2013-01-10 06:50:00,39.1,25.6,30.20,West,272,8.0,11.0,58,0.00,,---,0.00,VWS V14.01,2013-01-10 11:50:00,
2013-01-10 06:55:00,39.0,25.1,30.20,WNW,290,11.0,15.0,57,0.00,,---,0.00,VWS V14.01,2013-01-10 11:55:00,
2013-01-10 07:00:00,38.9,25.8,30.20,West,280,0.0,14.0,59,0.00,,---,0.00,VWS V14.01,2013-01-10 12:00:00,
2013-01-10 07:05:00,38.8,25.3,30.21,WNW,301,5.0,14.0,58,0.00,,---,0.00,VWS V14.01,2013-01-10 12:05:00,
2013-01-10 07:10:00,38.9,25.0,30.21,NW,306,5.0,12.0,57,0.00,,---,0.00,VWS V14.01,2013-01-10 12:10:00,
2013-01-10 07:15:00,38.9,25.0,30.22,West,269,4.0,9.0,57,0.00,,---,0.00,VWS V14.01,2013-01-10 12:15:00,
2013-01-10 07:21:00,38.7,24.8,30.23,NW,325,4.0,12.0,57,0.00,,---,0.00,VWS V14.01,2013-01-10 12:21:00,
2013-01-10 07:26:00,38.7,24.8,30.23,West,263,4.0,7.0,57,0.00,,---,0.00,VWS V14.01,2013-01-10 12:26:00,
2013-01-10 07:31:00,38.5,25.0,30.24,NNW,328,2.0,9.0,58,0.00,,---,0.00,VWS V14.01,2013-01-10 12:31:00,
2013-01-10 07:36:00,38.4,24.5,30.24,West,261,6.0,10.0,57,0.00,,---,0.00,VWS V14.01,2013-01-10 12:36:00,
2013-01-10 07:41:00,38.4,24.9,30.24,NW,314,4.0,11.0,58,0.00,,---,0.00,VWS V14.01,2013-01-10 12:41:00,
2013-01-10 07:46:00,38.4,24.9,30.25,West,270,6.0,7.0,58,0.00,,---,0.00,VWS V14.01,2013-01-10 12:46:00,
2013-01-10 07:51:00,38.4,24.5,30.25,WSW,254,4.0,11.0,57,0.00,,---,0.00,VWS V14.01,2013-01-10 12:51:00,
2013-01-10 07:56:00,38.5,25.0,30.26,WNW,296,3.0,17.0,58,0.00,,---,0.00,VWS V14.01,2013-01-10 12:56:00,
2013-01-10 08:01:00,38.4,24.9,30.26,North,350,4.0,15.0,58,0.00,,---,0.00,VWS V14.01,2013-01-10 13:01:00,
2013-01-10 08:06:00,38.5,25.0,30.26,West,281,2.0,14.0,58,0.00,,---,0.00,VWS V14.01,2013-01-10 13:06:00,
2013-01-10 08:11:00,38.7,24.8,30.26,WNW,292,3.0,15.0,57,0.00,,---,0.00,VWS V14.01,2013-01-10 13:11:00,
2013-01-10 08:17:00,38.8,24.9,30.27,NW,311,3.0,10.0,57,0.00,,---,0.00,VWS V14.01,2013-01-10 13:17:00,
2013-01-10 08:22:00,38.9,24.6,30.26,West,261,13.0,17.0,56,0.00,,---,0.00,VWS V14.01,2013-01-10 13:22:00,
2013-01-10 08:27:00,39.2,24.4,30.26,WNW,300,16.0,16.0,55,0.00,,---,0.00,VWS V14.01,2013-01-10 13:27:00,
2013-01-10 08:32:00,39.3,24.5,30.27,NW,314,4.0,17.0,55,0.00,,---,0.00,VWS V14.01,2013-01-10 13:32:00,
2013-01-10 08:37:00,39.5,24.7,30.27,West,269,6.0,10.0,55,0.00,,---,0.00,VWS V14.01,2013-01-10 13:37:00,
2013-01-10 08:42:00,39.7,24.0,30.27,NNW,332,8.0,14.0,53,0.00,,---,0.00,VWS V14.01,2013-01-10 13:42:00,
2013-01-10 08:47:00,39.8,24.5,30.27,West,261,15.0,18.0,54,0.00,,---,0.00,VWS V14.01,2013-01-10 13:47:00,
2013-01-10 08:52:00,39.9,24.2,30.27,NW,311,3.0,20.0,53,0.00,,---,0.00,VWS V14.01,2013-01-10 13:52:00,
2013-01-10 08:57:00,40.0,24.3,30.27,NNW,330,6.0,17.0,53,0.00,,---,0.00,VWS V14.01,2013-01-10 13:57:00,
2013-01-10 09:02:00,40.1,24.4,30.28,West,263,8.0,18.0,53,0.00,,---,0.00,VWS V14.01,2013-01-10 14:02:00,
2013-01-10 09:08:00,40.2,24.0,30.27,WSW,256,12.0,18.0,52,0.00,,---,0.00,VWS V14.01,2013-01-10 14:08:00,
2013-01-10 09:13:00,40.4,24.2,30.27,WSW,238,14.0,20.0,52,0.00,,---,0.00,VWS V14.01,2013-01-10 14:13:00,
2013-01-10 09:18:00,40.6,24.4,30.28,NNW,338,4.0,8.0,52,0.00,,---,0.00,VWS V14.01,2013-01-10 14:18:00,
2013-01-10 09:23:00,40.9,24.2,30.28,West,275,5.0,14.0,51,0.00,,---,0.00,VWS V14.01,2013-01-10 14:23:00,
2013-01-10 09:28:00,41.1,24.4,30.28,NNE,25,13.0,22.0,51,0.00,,---,0.00,VWS V14.01,2013-01-10 14:28:00,
2013-01-10 09:33:00,41.1,24.4,30.28,WNW,294,4.0,24.0,51,0.00,,---,0.00,VWS V14.01,2013-01-10 14:33:00,
2013-01-10 09:38:00,41.2,24.5,30.28,NW,313,3.0,21.0,51,0.00,,---,0.00,VWS V14.01,2013-01-10 14:38:00,
2013-01-10 09:43:00,41.4,24.6,30.29,North,350,10.0,16.0,51,0.00,,---,0.00,VWS V14.01,2013-01-10 14:43:00,
2013-01-10 09:48:00,41.6,24.8,30.29,NW,306,3.0,14.0,51,0.00,,---,0.00,VWS V14.01,2013-01-10 14:48:00,
2013-01-10 09:53:00,41.7,24.5,30.29,West,271,7.0,17.0,50,0.00,,---,0.00,VWS V14.01,2013-01-10 14:53:00,
2013-01-10 09:58:00,41.8,25.0,30.29,West,278,6.0,24.0,51,0.00,,---,0.00,VWS V14.01,2013-01-10 14:58:00,
2013-01-10 10:03:00,41.9,25.1,30.29,NW,321,9.0,14.0,51,0.00,,---,0.00,VWS V14.01,2013-01-10 15:03:00,
2013-01-10 10:09:00,42.1,24.8,30.31,WNW,296,11.0,19.0,50,0.00,,---,0.00,VWS V14.01,2013-01-10 15:09:00,
2013-01-10 10:14:00,42.2,25.4,30.30,NNE,32,5.0,16.0,51,0.00,,---,0.00,VWS V14.01,2013-01-10 15:14:00,
2013-01-10 10:19:00,42.2,25.4,30.31,NNW,336,5.0,16.0,51,0.00,,---,0.00,VWS V14.01,2013-01-10 15:19:00,
2013-01-10 10:24:00,42.5,25.7,30.30,WNW,286,5.0,5.0,51,0.00,,---,0.00,VWS V14.01,2013-01-10 15:24:00,
2013-01-10 10:29:00,42.6,25.3,30.30,NNW,327,8.0,19.0,50,0.00,,---,0.00,VWS V14.01,2013-01-10 15:29:00,
2013-01-10 10:34:00,42.6,24.8,30.31,NW,317,1.0,4.0,49,0.00,,---,0.00,VWS V14.01,2013-01-10 15:34:00,
2013-01-10 10:39:00,42.8,25.9,30.31,WNW,302,7.0,13.0,51,0.00,,---,0.00,VWS V14.01,2013-01-10 15:39:00,
2013-01-10 10:44:00,42.9,25.1,30.30,NW,311,6.0,21.0,49,0.00,,---,0.00,VWS V14.01,2013-01-10 15:44:00,
2013-01-10 10:49:00,43.0,25.2,30.30,NW,318,8.0,15.0,49,0.00,,---,0.00,VWS V14.01,2013-01-10 15:49:00,
2013-01-10 10:54:00,43.1,25.3,30.30,North,5,7.0,17.0,49,0.00,,---,0.00,VWS V14.01,2013-01-10 15:54:00,
2013-01-10 10:59:00,43.2,25.4,30.29,NW,309,6.0,13.0,49,0.00,,---,0.00,VWS V14.01,2013-01-10 15:59:00,
2013-01-10 11:05:00,43.1,25.7,30.28,WNW,288,3.0,12.0,50,0.00,,---,0.00,VWS V14.01,2013-01-10 16:05:00,
2013-01-10 11:10:00,43.2,25.8,30.28,West,277,10.0,15.0,50,0.00,,---,0.00,VWS V14.01,2013-01-10 16:10:00,
2013-01-10 11:15:00,43.4,26.5,30.29,NW,325,7.0,12.0,51,0.00,,---,0.00,VWS V14.01,2013-01-10 16:15:00,
2013-01-10 11:20:00,43.6,25.2,30.29,NW,320,7.0,21.0,48,0.00,,---,0.00,VWS V14.01,2013-01-10 16:20:00,
2013-01-10 11:25:00,43.4,25.0,30.29,West,263,6.0,19.0,48,0.00,,---,0.00,VWS V14.01,2013-01-10 16:25:00,
2013-01-10 11:30:00,43.4,25.5,30.29,WNW,303,4.0,12.0,49,0.00,,---,0.00,VWS V14.01,2013-01-10 16:30:00,
2013-01-10 11:35:00,43.7,25.8,30.29,WNW,290,3.0,9.0,49,0.00,,---,0.00,VWS V14.01,2013-01-10 16:35:00,
2013-01-10 11:40:00,44.0,25.6,30.29,West,262,12.0,14.0,48,0.00,,---,0.00,VWS V14.01,2013-01-10 16:40:00,
2013-01-10 11:45:00,44.1,25.2,30.28,North,349,5.0,18.0,47,0.00,,---,0.00,VWS V14.01,2013-01-10 16:45:00,
2013-01-10 11:51:00,44.1,25.2,30.29,West,259,9.0,19.0,47,0.00,,---,0.00,VWS V14.01,2013-01-10 16:51:00,
2013-01-10 11:56:00,44.1,25.2,30.28,NW,304,5.0,13.0,47,0.00,,---,0.00,VWS V14.01,2013-01-10 16:56:00,
2013-01-10 12:01:00,44.3,25.4,30.28,NW,311,3.0,17.0,47,0.00,,---,0.00,VWS V14.01,2013-01-10 17:01:00,
2013-01-10 12:06:00,44.7,25.7,30.29,NW,320,3.0,14.0,47,0.00,,---,0.00,VWS V14.01,2013-01-10 17:06:00,
2013-01-10 12:11:00,45.0,26.0,30.28,WNW,292,11.0,20.0,47,0.00,,---,0.00,VWS V14.01,2013-01-10 17:11:00,
2013-01-10 12:16:00,45.0,26.5,30.28,NW,304,3.0,14.0,48,0.00,,---,0.00,VWS V14.01,2013-01-10 17:16:00,
2013-01-10 12:21:00,45.2,25.7,30.28,WNW,286,2.0,10.0,46,0.00,,---,0.00,VWS V14.01,2013-01-10 17:21:00,
2013-01-10 12:26:00,45.4,25.9,30.28,NW,309,6.0,17.0,46,0.00,,---,0.00,VWS V14.01,2013-01-10 17:26:00,
2013-01-10 12:32:00,45.3,25.8,30.28,North,5,4.0,10.0,46,0.00,,---,0.00,VWS V14.01,2013-01-10 17:32:00,
2013-01-10 12:37:00,45.2,25.7,30.28,NW,308,4.0,10.0,46,0.00,,---,0.00,VWS V14.01,2013-01-10 17:37:00,
2013-01-10 12:42:00,45.3,25.8,30.28,North,355,7.0,12.0,46,0.00,,---,0.00,VWS V14.01,2013-01-10 17:42:00,
2013-01-10 12:47:00,45.5,25.9,30.29,NNW,346,2.0,11.0,46,0.00,,---,0.00,VWS V14.01,2013-01-10 17:47:00,
2013-01-10 12:52:00,45.6,27.1,30.29,NW,312,2.0,15.0,48,0.00,,---,0.00,VWS V14.01,2013-01-10 17:52:00,
2013-01-10 12:57:00,45.8,26.2,30.29,West,273,8.0,12.0,46,0.00,,---,0.00,VWS V14.01,2013-01-10 17:57:00,
2013-01-10 13:02:00,45.7,26.1,30.29,WNW,285,5.0,16.0,46,0.00,,---,0.00,VWS V14.01,2013-01-10 18:02:00,
2013-01-10 13:07:00,45.7,26.6,30.29,WNW,289,9.0,10.0,47,0.00,,---,0.00,VWS V14.01,2013-01-10 18:07:00,
2013-01-10 13:13:00,45.8,26.2,30.29,NW,307,6.0,12.0,46,0.00,,---,0.00,VWS V14.01,2013-01-10 18:13:00,
2013-01-10 13:18:00,45.8,25.7,30.30,NW,309,4.0,10.0,45,0.00,,---,0.00,VWS V14.01,2013-01-10 18:18:00,
2013-01-10 13:23:00,45.8,26.2,30.30,WNW,290,7.0,14.0,46,0.00,,---,0.00,VWS V14.01,2013-01-10 18:23:00,
2013-01-10 13:28:00,45.7,25.6,30.30,NNW,330,9.0,17.0,45,0.00,,---,0.00,VWS V14.01,2013-01-10 18:28:00,
2013-01-10 13:33:00,45.6,25.5,30.31,WSW,239,7.0,15.0,45,0.00,,---,0.00,VWS V14.01,2013-01-10 18:33:00,
2013-01-10 13:38:00,45.8,25.7,30.31,NNW,331,7.0,10.0,45,0.00,,---,0.00,VWS V14.01,2013-01-10 18:38:00,
2013-01-10 13:43:00,45.9,25.8,30.31,WNW,292,3.0,15.0,45,0.00,,---,0.00,VWS V14.01,2013-01-10 18:43:00,
2013-01-10 13:48:00,45.9,26.3,30.31,West,281,4.0,10.0,46,0.00,,---,0.00,VWS V14.01,2013-01-10 18:48:00,
2013-01-10 13:53:00,45.9,25.8,30.31,WNW,294,7.0,17.0,45,0.00,,---,0.00,VWS V14.01,2013-01-10 18:53:00,
2013-01-10 13:58:00,45.9,25.8,30.32,NW,317,2.0,15.0,45,0.00,,---,0.00,VWS V14.01,2013-01-10 18:58:00,
2013-01-10 14:03:00,45.8,26.2,30.32,NW,313,11.0,18.0,46,0.00,,---,0.00,VWS V14.01,2013-01-10 19:03:00,
2013-01-10 14:09:00,45.7,25.6,30.32,WNW,296,9.0,17.0,45,0.00,,---,0.00,VWS V14.01,2013-01-10 19:09:00,
2013-01-10 14:14:00,45.5,25.9,30.32,NNW,336,5.0,17.0,46,0.00,,---,0.00,VWS V14.01,2013-01-10 19:14:00,
2013-01-10 14:19:00,45.5,25.9,30.32,NW,313,10.0,16.0,46,0.00,,---,0.00,VWS V14.01,2013-01-10 19:19:00,
2013-01-10 14:24:00,45.4,25.9,30.33,NW,323,6.0,13.0,46,0.00,,---,0.00,VWS V14.01,2013-01-10 19:24:00,
2013-01-10 14:29:00,45.3,26.3,30.34,NW,319,4.0,15.0,47,0.00,,---,0.00,VWS V14.01,2013-01-10 19:29:00,
2013-01-10 14:34:00,45.1,25.6,30.34,WNW,294,2.0,13.0,46,0.00,,---,0.00,VWS V14.01,2013-01-10 19:34:00,
2013-01-10 14:39:00,45.0,26.0,30.35,NNW,331,1.0,10.0,47,0.00,,---,0.00,VWS V14.01,2013-01-10 19:39:00,
2013-01-10 14:44:00,45.0,26.5,30.34,West,262,4.0,13.0,48,0.00,,---,0.00,VWS V14.01,2013-01-10 19:44:00,
2013-01-10 14:49:00,44.9,25.9,30.34,NW,315,4.0,10.0,47,0.00,,---,0.00,VWS V14.01,2013-01-10 19:49:00,
2013-01-10 14:54:00,44.6,26.1,30.34,NW,314,1.0,7.0,48,0.00,,---,0.00,VWS V14.01,2013-01-10 19:54:00,
2013-01-10 14:59:00,44.5,25.5,30.34,NW,321,5.0,9.0,47,0.00,,---,0.00,VWS V14.01,2013-01-10 19:59:00,
2013-01-10 15:04:00,44.5,25.5,30.34,NNW,340,7.0,25.0,47,0.00,,---,0.00,VWS V14.01,2013-01-10 20:04:00,
2013-01-10 15:09:00,44.3,25.9,30.34,NW,314,5.0,6.0,48,0.00,,---,0.00,VWS V14.01,2013-01-10 20:09:00,
2013-01-10 15:14:00,44.2,25.8,30.34,NW,319,3.0,5.0,48,0.00,,---,0.00,VWS V14.01,2013-01-10 20:14:00,
2013-01-10 15:19:00,44.1,25.7,30.34,NW,321,8.0,8.0,48,0.00,,---,0.00,VWS V14.01,2013-01-10 20:19:00,
2013-01-10 15:24:00,43.8,25.4,30.35,WNW,288,5.0,5.0,48,0.00,,---,0.00,VWS V14.01,2013-01-10 20:24:00,
2013-01-10 15:29:00,43.6,25.2,30.35,NW,316,4.0,5.0,48,0.00,,---,0.00,VWS V14.01,2013-01-10 20:29:00,
2013-01-10 15:34:00,43.4,25.0,30.35,NNW,342,4.0,4.0,48,0.00,,---,0.00,VWS V14.01,2013-01-10 20:34:00,
2013-01-10 15:39:00,43.2,25.4,30.36,NW,306,2.0,4.0,49,0.00,,---,0.00,VWS V14.01,2013-01-10 20:39:00,
2013-01-10 15:44:00,43.1,25.3,30.36,NNW,345,2.0,8.0,49,0.00,,---,0.00,VWS V14.01,2013-01-10 20:44:00,
2013-01-10 15:49:00,43.0,25.2,30.37,NW,323,7.0,7.0,49,0.00,,---,0.00,VWS V14.01,2013-01-10 20:49:00,
2013-01-10 15:54:00,42.9,25.1,30.37,North,360,7.0,7.0,49,0.00,,---,0.00,VWS V14.01,2013-01-10 20:54:00,
2013-01-10 15:59:00,42.7,25.4,30.36,WNW,300,3.0,4.0,50,0.00,,---,0.00,VWS V14.01,2013-01-10 20:59:00,
2013-01-10 16:04:00,42.4,25.1,30.36,WNW,288,5.0,5.0,50,0.00,,---,0.00,VWS V14.01,2013-01-10 21:04:00,
2013-01-10 16:09:00,42.2,24.9,30.36,NW,307,6.0,11.0,50,0.00,,---,0.00,VWS V14.01,2013-01-10 21:09:00,
2013-01-10 16:14:00,41.9,24.6,30.37,NNW,327,10.0,10.0,50,0.00,,---,0.00,VWS V14.01,2013-01-10 21:14:00,
2013-01-10 16:19:00,41.8,24.5,30.38,NW,305,7.0,11.0,50,0.00,,---,0.00,VWS V14.01,2013-01-10 21:19:00,
2013-01-10 16:24:00,41.7,24.9,30.38,NW,315,2.0,2.0,51,0.00,,---,0.00,VWS V14.01,2013-01-10 21:24:00,
2013-01-10 16:29:00,41.3,25.0,30.39,West,271,1.0,5.0,52,0.00,,---,0.00,VWS V14.01,2013-01-10 21:29:00,
2013-01-10 16:34:00,41.0,24.7,30.39,WSW,252,1.0,4.0,52,0.00,,---,0.00,VWS V14.01,2013-01-10 21:34:00,
2013-01-10 16:39:00,40.9,24.6,30.40,NNW,336,4.0,9.0,52,0.00,,---,0.00,VWS V14.01,2013-01-10 21:39:00,
2013-01-10 16:45:00,40.8,25.0,30.40,NNW,327,6.0,10.0,53,0.00,,---,0.00,VWS V14.01,2013-01-10 21:45:00,
2013-01-10 16:50:00,40.6,24.8,30.40,NW,322,4.0,7.0,53,0.00,,---,0.00,VWS V14.01,2013-01-10 21:50:00,
2013-01-10 16:55:00,40.5,25.2,30.41,WNW,284,2.0,2.0,54,0.00,,---,0.00,VWS V14.01,2013-01-10 21:55:00,
2013-01-10 17:00:00,40.1,24.8,30.42,NW,324,2.0,4.0,54,0.00,,---,0.00,VWS V14.01,2013-01-10 22:00:00,
2013-01-10 17:05:00,39.9,25.1,30.42,NNW,331,3.0,8.0,55,0.00,,---,0.00,VWS V14.01,2013-01-10 22:05:00,
2013-01-10 17:10:00,39.5,24.7,30.41,NW,323,4.0,6.0,55,0.00,,---,0.00,VWS V14.01,2013-01-10 22:10:00,
2013-01-10 17:15:00,39.4,25.0,30.41,NW,326,3.0,11.0,56,0.00,,---,0.00,VWS V14.01,2013-01-10 22:15:00,
2013-01-10 17:20:00,39.4,25.0,30.41,NNW,329,3.0,6.0,56,0.00,,---,0.00,VWS V14.01,2013-01-10 22:20:00,
2013-01-10 17:25:00,39.2,24.8,30.41,NW,314,3.0,7.0,56,0.00,,---,0.00,VWS V14.01,2013-01-10 22:25:00,
2013-01-10 17:30:00,38.9,25.0,30.42,NW,306,1.0,6.0,57,0.00,,---,0.00,VWS V14.01,2013-01-10 22:30:00,
2013-01-10 17:36:00,38.5,24.6,30.43,NW,307,0.0,1.0,57,0.00,,---,0.00,VWS V14.01,2013-01-10 22:36:00,
2013-01-10 17:41:00,38.2,24.7,30.43,NW,321,2.0,6.0,58,0.00,,---,0.00,VWS V14.01,2013-01-10 22:41:00,
2013-01-10 17:46:00,37.8,24.8,30.42,NW,319,3.0,6.0,59,0.00,,---,0.00,VWS V14.01,2013-01-10 22:46:00,
2013-01-10 17:51:00,37.7,24.7,30.42,NNW,331,5.0,7.0,59,0.00,,---,0.00,VWS V14.01,2013-01-10 22:51:00,
2013-01-10 17:56:00,37.8,24.8,30.42,NW,319,3.0,8.0,59,0.00,,---,0.00,VWS V14.01,2013-01-10 22:56:00,
2013-01-10 18:01:00,37.9,25.3,30.42,NW,312,3.0,6.0,60,0.00,,---,0.00,VWS V14.01,2013-01-10 23:01:00,
2013-01-10 18:06:00,37.8,24.8,30.42,NNW,345,8.0,13.0,59,0.00,,---,0.00,VWS V14.01,2013-01-10 23:06:00,
2013-01-10 18:11:00,38.0,25.0,30.42,WNW,300,2.0,12.0,59,0.00,,---,0.00,VWS V14.01,2013-01-10 23:11:00,
2013-01-10 18:16:00,38.1,25.1,30.42,NW,323,0.0,7.0,59,0.00,,---,0.00,VWS V14.01,2013-01-10 23:16:00,
2013-01-10 18:21:00,38.1,25.1,30.43,West,260,3.0,12.0,59,0.00,,---,0.00,VWS V14.01,2013-01-10 23:21:00,
2013-01-10 18:26:00,38.1,25.1,30.43,NNW,330,6.0,9.0,59,0.00,,---,0.00,VWS V14.01,2013-01-10 23:26:00,
2013-01-10 18:31:00,38.1,25.1,30.43,West,272,3.0,7.0,59,0.00,,---,0.00,VWS V14.01,2013-01-10 23:31:00,
2013-01-10 18:36:00,38.0,25.0,30.44,West,270,6.0,6.0,59,0.00,,---,0.00,VWS V14.01,2013-01-10 23:36:00,
2013-01-10 18:42:00,37.9,24.9,30.42,West,260,4.0,10.0,59,0.00,,---,0.00,VWS V14.01,2013-01-10 23:42:00,
2013-01-10 18:47:00,37.9,24.9,30.42,WNW,301,5.0,10.0,59,0.00,,---,0.00,VWS V14.01,2013-01-10 23:47:00,
2013-01-10 18:52:00,37.8,25.2,30.42,WNW,286,3.0,9.0,60,0.00,,---,0.00,VWS V14.01,2013-01-10 23:52:00,
2013-01-10 18:57:00,37.8,25.2,30.42,NNW,329,6.0,13.0,60,0.00,,---,0.00,VWS V14.01,2013-01-10 23:57:00,
2013-01-10 19:02:00,37.8,25.2,30.42,West,277,3.0,12.0,60,0.00,,---,0.00,VWS V14.01,2013-01-11 00:02:00,
2013-01-10 19:07:00,37.7,24.7,30.43,North,360,2.0,6.0,59,0.00,,---,0.00,VWS V14.01,2013-01-11 00:07:00,
2013-01-10 19:12:00,37.5,25.3,30.43,WNW,301,4.0,4.0,61,0.00,,---,0.00,VWS V14.01,2013-01-11 00:12:00,
2013-01-10 19:17:00,37.2,25.0,30.43,NW,313,3.0,9.0,61,0.00,,---,0.00,VWS V14.01,2013-01-11 00:17:00,
2013-01-10 19:22:00,37.1,25.3,30.43,WNW,301,1.0,5.0,62,0.00,,---,0.00,VWS V14.01,2013-01-11 00:22:00,
2013-01-10 19:27:00,36.9,24.7,30.43,WNW,284,4.0,7.0,61,0.00,,---,0.00,VWS V14.01,2013-01-11 00:27:00,
2013-01-10 19:32:00,36.7,25.3,30.44,WNW,302,2.0,13.0,63,0.00,,---,0.00,VWS V14.01,2013-01-11 00:32:00,
2013-01-10 19:37:00,36.4,24.6,30.44,NNW,327,0.0,6.0,62,0.00,,---,0.00,VWS V14.01,2013-01-11 00:37:00,
2013-01-10 19:43:00,36.2,24.8,30.45,NNW,327,0.0,2.0,63,0.00,,---,0.00,VWS V14.01,2013-01-11 00:43:00,
2013-01-10 19:48:00,35.9,24.5,30.45,NNW,327,0.0,3.0,63,0.00,,---,0.00,VWS V14.01,2013-01-11 00:48:00,
2013-01-10 19:53:00,35.5,24.5,30.46,NNW,327,0.0,3.0,64,0.00,,---,0.00,VWS V14.01,2013-01-11 00:53:00,
2013-01-10 19:58:00,35.1,24.5,30.45,NNW,346,1.0,5.0,65,0.00,,---,0.00,VWS V14.01,2013-01-11 00:58:00,
2013-01-10 20:03:00,34.6,24.4,30.45,West,272,5.0,5.0,66,0.00,,---,0.00,VWS V14.01,2013-01-11 01:03:00,
2013-01-10 20:08:00,34.4,24.2,30.45,West,273,2.0,9.0,66,0.00,,---,0.00,VWS V14.01,2013-01-11 01:08:00,
2013-01-10 20:13:00,34.7,24.9,30.44,West,263,1.0,8.0,67,0.00,,---,0.00,VWS V14.01,2013-01-11 01:13:00,
2013-01-10 20:18:00,34.8,24.6,30.45,NW,323,7.0,10.0,66,0.00,,---,0.00,VWS V14.01,2013-01-11 01:18:00,
2013-01-10 20:23:00,35.2,24.6,30.46,NNW,332,2.0,7.0,65,0.00,,---,0.00,VWS V14.01,2013-01-11 01:23:00,
2013-01-10 20:28:00,35.1,24.5,30.47,North,360,0.0,3.0,65,0.00,,---,0.00,VWS V14.01,2013-01-11 01:28:00,
2013-01-10 20:33:00,34.8,24.2,30.47,North,360,0.0,1.0,65,0.00,,---,0.00,VWS V14.01,2013-01-11 01:33:00,
2013-01-10 20:38:00,34.4,24.2,30.47,NW,316,0.0,4.0,66,0.00,,---,0.00,VWS V14.01,2013-01-11 01:38:00,
2013-01-10 20:43:00,34.4,24.6,30.47,NW,316,0.0,3.0,67,0.00,,---,0.00,VWS V14.01,2013-01-11 01:43:00,
2013-01-10 20:49:00,34.0,24.6,30.47,NW,310,3.0,5.0,68,0.00,,---,0.00,VWS V14.01,2013-01-11 01:49:00,
2013-01-10 20:54:00,33.6,24.5,30.47,NW,312,3.0,7.0,69,0.00,,---,0.00,VWS V14.01,2013-01-11 01:54:00,
2013-01-10 20:59:00,33.3,24.6,30.47,NW,312,1.0,3.0,70,0.00,,---,0.00,VWS V14.01,2013-01-11 01:59:00,
2013-01-10 21:04:00,32.9,24.5,30.47,NW,312,0.0,4.0,71,0.00,,---,0.00,VWS V14.01,2013-01-11 02:04:00,
2013-01-10 21:09:00,32.6,24.2,30.47,NW,315,4.0,4.0,71,0.00,,---,0.00,VWS V14.01,2013-01-11 02:09:00,
2013-01-10 21:14:00,32.5,24.2,30.48,NW,320,0.0,0.0,71,0.00,,---,0.00,VWS V14.01,2013-01-11 02:14:00,
2013-01-10 21:19:00,32.3,24.0,30.49,NW,320,0.0,0.0,71,0.00,,---,0.00,VWS V14.01,2013-01-11 02:19:00,
2013-01-10 21:24:00,32.1,23.8,30.49,NW,320,0.0,0.0,71,0.00,,---,0.00,VWS V14.01,2013-01-11 02:24:00,
2013-01-10 21:29:00,31.9,23.9,30.49,NW,320,0.0,0.0,72,0.00,,---,0.00,VWS V14.01,2013-01-11 02:29:00,
2013-01-10 21:34:00,31.6,23.6,30.49,NW,320,0.0,1.0,72,0.00,,---,0.00,VWS V14.01,2013-01-11 02:34:00,
2013-01-10 21:39:00,31.2,23.6,30.50,NW,320,0.0,0.0,73,0.00,,---,0.00,VWS V14.01,2013-01-11 02:39:00,
2013-01-10 21:44:00,30.8,23.8,30.50,NW,320,0.0,0.0,75,0.00,,---,0.00,VWS V14.01,2013-01-11 02:44:00,
2013-01-10 21:49:00,30.4,23.8,30.50,NW,320,1.0,1.0,76,0.00,,---,0.00,VWS V14.01,2013-01-11 02:49:00,
2013-01-10 21:54:00,30.1,23.8,30.50,NW,320,0.0,0.0,77,0.00,,---,0.00,VWS V14.01,2013-01-11 02:54:00,
2013-01-10 21:59:00,29.8,23.8,30.50,NW,320,0.0,0.0,78,0.00,,---,0.00,VWS V14.01,2013-01-11 02:59:00,
2013-01-10 22:04:00,29.6,23.6,30.50,NW,320,0.0,0.0,78,0.00,,---,0.00,VWS V14.01,2013-01-11 03:04:00,
2013-01-10 22:10:00,29.4,23.4,30.50,NW,320,0.0,0.0,78,0.00,,---,0.00,VWS V14.01,2013-01-11 03:10:00,
2013-01-10 22:15:00,29.1,23.1,30.50,NW,320,0.0,0.0,78,0.00,,---,0.00,VWS V14.01,2013-01-11 03:15:00,
2013-01-10 22:20:00,28.9,23.2,30.50,NW,320,0.0,0.0,79,0.00,,---,0.00,VWS V14.01,2013-01-11 03:20:00,
2013-01-10 22:25:00,28.8,23.1,30.50,NW,320,0.0,0.0,79,0.00,,---,0.00,VWS V14.01,2013-01-11 03:25:00,
2013-01-10 22:30:00,28.6,23.2,30.50,NW,320,0.0,0.0,80,0.00,,---,0.00,VWS V14.01,2013-01-11 03:30:00,
2013-01-10 22:35:00,28.5,23.1,30.50,NW,320,0.0,1.0,80,0.00,,---,0.00,VWS V14.01,2013-01-11 03:35:00,
2013-01-10 22:40:00,28.4,23.3,30.50,NW,320,0.0,0.0,81,0.00,,---,0.00,VWS V14.01,2013-01-11 03:40:00,
2013-01-10 22:45:00,28.2,23.4,30.50,NW,320,0.0,1.0,82,0.00,,---,0.00,VWS V14.01,2013-01-11 03:45:00,
2013-01-10 22:50:00,28.1,23.3,30.50,NW,320,0.0,1.0,82,0.00,,---,0.00,VWS V14.01,2013-01-11 03:50:00,
2013-01-10 22:55:00,27.9,23.1,30.51,NW,320,0.0,1.0,82,0.00,,---,0.00,VWS V14.01,2013-01-11 03:55:00,
2013-01-10 23:00:00,27.8,23.3,30.51,NW,320,0.0,0.0,83,0.00,,---,0.00,VWS V14.01,2013-01-11 04:00:00,
2013-01-10 23:05:00,27.8,23.6,30.50,NW,320,0.0,1.0,84,0.00,,---,0.00,VWS V14.01,2013-01-11 04:05:00,
2013-01-10 23:10:00,27.8,23.6,30.50,NW,320,0.0,0.0,84,0.00,,---,0.00,VWS V14.01,2013-01-11 04:10:00,
2013-01-10 23:15:00,27.8,23.6,30.50,NW,320,0.0,0.0,84,0.00,,---,0.00,VWS V14.01,2013-01-11 04:15:00,
2013-01-10 23:20:00,27.8,23.6,30.49,NW,320,0.0,2.0,84,0.00,,---,0.00,VWS V14.01,2013-01-11 04:20:00,
2013-01-10 23:25:00,27.8,23.6,30.49,NW,320,0.0,0.0,84,0.00,,---,0.00,VWS V14.01,2013-01-11 04:25:00,
2013-01-10 23:30:00,27.8,23.6,30.49,NW,320,2.0,4.0,84,0.00,,---,0.00,VWS V14.01,2013-01-11 04:30:00,
2013-01-10 23:36:00,27.7,23.5,30.49,NW,320,0.0,0.0,84,0.00,,---,0.00,VWS V14.01,2013-01-11 04:36:00,
2013-01-10 23:41:00,27.6,23.4,30.49,NW,320,0.0,0.0,84,0.00,,---,0.00,VWS V14.01,2013-01-11 04:41:00,
2013-01-10 23:46:00,27.5,23.3,30.49,NW,320,0.0,0.0,84,0.00,,---,0.00,VWS V14.01,2013-01-11 04:46:00,
2013-01-10 23:51:00,27.5,23.3,30.49,NW,320,0.0,3.0,84,0.00,,---,0.00,VWS V14.01,2013-01-11 04:51:00,
2013-01-10 23:56:00,27.4,23.5,30.49,NW,320,0.0,2.0,85,0.00,,---,0.00,VWS V14.01,2013-01-11 04:56:00,